Showing default

OPS 9311 (IDSCS 1), 2215

Orbit data source: Space-Track

OPS 9311 (IDSCS 1), 2215 is a payload satellite owned by USAF SSD (US) in GEO that was launched on Thu, 16 Jun 1966 UTC via a TITAN IIIC launch vehicle from the Air Force Eastern Test Range (AFETR). Payload-class satellites include a variety of spacecraft equipped with specific instruments for various scientific and technological missions. These include communications satellites like Starlink; space stations such as the ISS; scientific satellites like the Hubble; Earth observation satellites from companies like Planet Labs, Umbra, and HawkEye 360; GPS; miniature CubeSats for education and research; and military/defense satellites.

Loading next visibility...
Identifier
2215, 1966-053B
Orbit
GEO
Last TLE update
2 days ago
Origin
Manufacturer
Philco-Ford WDL
Mission
Non-operational Defense Communications
Bus & Motor
IDCSP, Unknown motor
Mass
45 kg wet, 45 kg dry
Launch date (UTC)
1966-06-16 (59 years ago)
Launch vehicle
TITAN IIIC
Launch site
Air Force Eastern Test Range (AFETR)
Object type
Payload
Rocket body
Debris
Shape & HBR
Ico Poly, 0.9 m
Radar Cross Section
0.926 m², Medium (>0.1 m² and < 1m²)

Expand to show TLE details & history

TLE from 2 days ago
0 OPS 9311 (IDSCS 1)
1 02215U 66053B   25179.75096740 -.00000108  00000-0  00000-0 0  9992
2 02215   8.0169  46.9162 0029575 213.6867 146.0934  1.07909635130556
Epoch: 2025-06-28T18:01Z
TLE epoch observation values (Epoch: 2025-06-28T18:01:23.583Z)
Latitude
0.00001°
Longitude
-140.53269°
Altitude
33,871.072 km
Speed
3.143 km/s
True Right ascension
03h 07m 36s
True Declination
0° 00' 00"
Sunlit
Object was in daylight at epoch
Visualization orbit readout
Latitude
-4.97682°
Longitude
77.48975°
Altitude
33,654.259 km
Speed
3.16 km/s
Apparent Right ascension
17h 55m 40s
Apparent Declination
-11° 54' 34"
Sunlit
Object is in daylight
Visualization observer readout
Local Sidereal Time
15:37:22
Azimuth
140.569° SSE
Elevation
29.046°
Doppler factor
1
Orbital elements
Apogee altitude
33,892.578 km
Perigee altitude
33,655.079 km
Semi-major axis
40,151.966 km
Eccentricity
0.00296
Inclination
8.0169°
RAAN
46.9162°
Arg. of periapsis
213.6867°
True anomaly
Unknown
Mean anomaly
146.0934°
Eccentric anomaly
Unknown
Mean motion
0.26976 °/min
Orbital period
1,334.5 mins
BSTAR
0
Loading historical data...
2215 neighbors
Loading maneuver chart data...
Loading SW <> Apogee altitude chart data...
Loading historical data...
Loading historical data...
Loading historical data...
Loading historical data...
Loading historical data...
Loading historical data...
Loading historical data...

OPS 9311 (IDSCS 1) Visibility forecast

Observer location: undefined°, undefined°

Span
Click to sort rows by Start time (UTC) header in descending order
Start Az.
Max El. time (UTC)
Max El. Az.
Max El.
End time (UTC)
End Az.
1415 mins2025-07-01 03:59:59.296Z140.581° SSE2025-07-01 16:34:59.296Z117.01° SE26.825°2025-07-02 03:34:59.296Z117.266° SE
|